[[{"header":{"parameterUnit":"m.s-1","parameterCategory":1,"la1":30.2991,"la2":30.254,"lo1":-89.0895,"lo2":-89.0444,"dy":0.0017,"dx":0.0017,"nx":28,"ny":28,"refTime":"2024-04-11T21:00:00:Z","depth":0,"parameterNumber":2,"parameterNumberName":"U-component_of_WINDS"},"data":[0,0,0,0,0,0,0,0,0,0,0,0,0,0,0,0,0,0,0,0,0,0,0,0,0,0,0,0,0,0,0,0,0,0,0,0,0,0,0,0,0,0,0,0,0,0,0,0,0,0,0,0,0,0,0,0,0,0,-0.2127,-0.2127,0,-0.2157,-0.2157,-0.2158,-0.2146,-0.2145,-0.2144,-0.2143,-0.2175,-0.2177,-0.2178,0,0,0,0,0,0,0,0,0,0,0,0,0,-0.2059,-0.2061,-0.2127,-0.2127,-0.2127,-0.2157,-0.2157,-0.2158,-0.2146,-0.2145,-0.2144,-0.2143,-0.2175,-0.2177,-0.2178,0,0,0,0,0,0,0,0,0,0,0,0,0,-0.2089,-0.2061,-0.2127,-0.2125,-0.2125,-0.2157,-0.2157,-0.2158,-0.2146,-0.2145,-0.2144,-0.2143,-0.2174,-0.2176,-0.2179,-0.2214,0,0,-0.2186,-0.2187,0,0,0,0,0,0,0,0,-0.2087,-0.2091,-0.2125,-0.2125,-0.2125,-0.2146,-0.2145,-0.2177,-0.2146,-0.2138,-0.2143,-0.2142,-0.2167,-0.2169,-0.2177,-0.2215,-0.2217,-0.2186,-0.2187,-0.2188,-0.2189,0,0,0,0,0,0,0,-0.2085,-0.209,-0.2139,-0.2125,-0.2126,-0.2123,-0.2126,-0.2151,-0.2158,-0.2139,-0.2138,-0.2141,-0.2166,-0.2175,-0.2178,-0.2217,-0.2186,-0.2188,-0.2189,-0.219,-0.2286,-0.2287,0,0,0,0,0,0,-0.2083,-0.2088,-0.2138,-0.214,-0.2103,-0.2125,-0.2128,-0.2141,-0.2158,-0.2159,-0.2142,-0.2141,-0.2172,-0.2175,-0.2179,-0.2222,-0.2188,-0.219,-0.2191,-0.2285,-0.2286,-0.2288,0,0,0,0,0,0,-0.2082,-0.2087,-0.2136,-0.2114,-0.212,-0.2127,-0.2141,-0.2142,-0.2151,-0.216,-0.2162,-0.215,-0.2171,-0.2176,-0.2205,-0.2223,-0.2191,-0.2193,-0.2283,-0.2285,-0.2287,-0.2308,0,0,0,0,0,0,-0.208,-0.2087,-0.2101,-0.2114,-0.2121,-0.2162,-0.2142,-0.2143,-0.2154,-0.2153,-0.2168,-0.217,-0.2171,-0.2202,-0.2208,-0.2226,-0.2195,-0.2282,-0.2284,-0.2286,-0.2306,-0.2311,-0.2315,0,0,0,0,0,-0.2077,-0.2105,-0.2101,-0.2107,-0.2138,-0.2163,-0.2167,-0.2168,-0.2156,-0.217,-0.2176,-0.2169,-0.222,-0.2205,-0.2211,-0.223,-0.2281,-0.2284,-0.2286,-0.2304,-0.231,-0.2314,0,0,0,0,0,0,-0.2094,-0.2107,-0.2103,-0.2136,-0.2149,-0.2161,-0.2179,-0.2174,-0.219,-0.2188,-0.2188,-0.2191,-0.2222,-0.2229,-0.2212,-0.2265,-0.2249,-0.2253,-0.226,-0.2266,-0.227,-0.2268,-0.2197,0,0,0,0,0,-0.2102,-0.2121,-0.2131,-0.216,-0.2166,-0.2171,-0.2182,-0.2182,-0.2195,-0.22,-0.2208,-0.2222,-0.2241,-0.2253,-0.2271,-0.2306,-0.231,-0.2322,-0.2327,-0.233,-0.2334,-0.2354,-0.236,-0.2296,-0.2296,-0.2296,0,0,-0.2118,-0.2127,-0.2139,-0.2163,-0.2173,-0.2193,-0.2176,-0.2198,-0.2213,-0.2203,-0.2232,-0.2238,-0.2253,-0.2286,-0.2301,-0.2293,-0.2352,-0.2333,-0.2336,-0.2338,-0.2357,-0.2363,-0.2368,-0.2298,-0.2298,-0.2298,0,0,-0.2157,-0.2166,-0.2191,-0.2201,-0.2215,-0.2219,-0.2224,-0.2238,-0.2242,-0.227,-0.2263,-0.2281,-0.2314,-0.2324,-0.2334,-0.2377,-0.2372,-0.2383,-0.2406,-0.2425,-0.243,-0.2434,-0.245,-0.2456,-0.2386,-0.2387,-0.2387,0,-0.2176,-0.2206,-0.2205,-0.2227,-0.2238,-0.223,-0.2255,-0.2265,-0.2285,-0.2293,-0.2283,-0.2323,-0.2333,-0.2368,-0.2378,-0.2386,-0.2393,-0.2382,-0.2429,-0.2433,-0.2438,-0.2453,-0.2459,-0.2388,-0.2388,-0.2388,-0.2387,0,-0.2228,-0.2249,-0.2267,-0.2286,-0.2299,-0.2323,-0.2326,-0.2339,-0.2336,-0.2341,-0.237,-0.238,-0.24,-0.2408,-0.2406,-0.2443,-0.2438,-0.2429,-0.2412,-0.2445,-0.246,-0.2465,-0.239,-0.2389,-0.2389,-0.2389,0,0,-0.2281,-0.2298,-0.2305,-0.2314,-0.2329,-0.2345,-0.2368,-0.2388,-0.2399,-0.2413,-0.2433,-0.246,-0.2452,-0.2463,-0.2462,-0.2478,-0.2513,-0.2467,-0.2467,-0.2476,-0.2555,-0.2563,-0.257,-0.2508,-0.2509,-0.251,-0.2554,0,-0.2322,-0.2364,-0.2363,-0.2401,-0.2421,-0.2412,-0.2433,-0.2444,-0.2449,-0.2466,-0.247,-0.249,-0.2477,-0.2483,-0.2499,-0.2505,-0.2529,-0.2502,-0.2528,-0.2529,-0.2526,-0.2577,-0.2586,-0.2627,-0.2559,-0.256,-0.2561,0,-0.2377,-0.2392,-0.2433,-0.2445,-0.2453,-0.2471,-0.2489,-0.2505,-0.2518,-0.252,-0.2532,-0.2528,-0.2552,-0.2534,-0.2567,-0.2549,-0.2559,-0.2563,-0.2565,-0.2569,-0.2548,-0.2584,-0.264,-0.2646,-0.257,-0.2569,-0.2569,0,-0.2413,-0.2443,-0.2472,-0.2479,-0.2494,-0.2507,-0.2514,-0.2525,-0.2537,-0.2552,-0.256,-0.2577,-0.2587,-0.2601,-0.2603,-0.2589,-0.2636,-0.2618,-0.2639,-0.2639,-0.2651,-0.2651,-0.2711,-0.2655,-0.2655,-0.2655,-0.2655,0,-0.2461,-0.2486,-0.2488,-0.2505,-0.2533,-0.2532,-0.256,-0.2565,-0.2576,-0.2594,-0.2587,-0.2605,-0.2605,-0.2623,-0.2624,-0.2652,-0.2656,-0.2658,-0.2659,-0.266,-0.266,-0.2668,-0.2666,-0.2657,-0.2656,-0.2656,-0.2656,0,-0.2506,-0.2508,-0.2539,-0.255,-0.2553,-0.2573,-0.2583,-0.26,-0.2602,-0.2626,-0.2631,-0.2636,-0.2657,-0.2659,-0.2683,-0.2684,-0.2718,-0.2714,-0.2714,-0.2714,-0.2736,-0.2734,-0.2804,-0.2814,-0.2751,-0.2751,-0.2752,0,-0.2537,-0.2557,-0.257,-0.2581,-0.2589,-0.2608,-0.2619,-0.2618,-0.2631,-0.2647,-0.2662,-0.2681,-0.2697,-0.2731,-0.2737,-0.2755,-0.2753,-0.2776,-0.2756,-0.2756,-0.2755,-0.2754,-0.2756,-0.2781,-0.2781,-0.2782,-0.2782,0,-0.2593,-0.2593,-0.261,-0.2627,-0.2641,-0.2655,-0.2668,-0.2678,-0.2678,-0.2693,-0.2714,-0.2726,-0.275,-0.277,-0.2788,-0.2795,-0.2789,-0.2788,-0.2795,-0.2797,-0.2796,-0.2798,-0.2726,-0.2787,-0.2787,-0.2786,-0.2786,-0.2786,-0.2633,-0.265,-0.2662,-0.2681,-0.269,-0.2702,-0.2719,-0.2723,-0.2741,-0.276,-0.2758,-0.2782,-0.2793,-0.2817,-0.2825,-0.2843,-0.2835,-0.2844,-0.2847,-0.2849,-0.2852,-0.2792,-0.2846,-0.2846,-0.2846,-0.2846,-0.2846,0,-0.2689,-0.2696,-0.2714,-0.2732,-0.2747,-0.2739,-0.2752,-0.2766,-0.2786,-0.2798,-0.2813,-0.2837,-0.2856,-0.2863,-0.2882,-0.2895,-0.2893,-0.29,-0.29,-0.2902,-0.2857,-0.2851,-0.2902,-0.2902,-0.2902,-0.2902,-0.2902,-0.2902,-0.272,-0.2749,-0.275,-0.2783,-0.2789,-0.2812,-0.2821,-0.2832,-0.2841,-0.2868,-0.2884,-0.2888,-0.2897,-0.2917,-0.2934,-0.2935,-0.2943,-0.2952,-0.2952,-0.2911,-0.2905,-0.29,-0.2894,-0.2953,-0.2953,-0.2996,-0.2996,-0.2997]},{"header":{"parameterUnit":"m.s-1","parameterCategory":1,"la1":30.2991,"la2":30.254,"lo1":-89.0895,"lo2":-89.0444,"dy":0.0017,"dx":0.0017,"nx":28,"ny":28,"refTime":"2024-04-11T21:00:00:Z","depth":0,"parameterNumber":3,"parameterNumberName":"V-component_of_WINDS"},"data":[0,0,0,0,0,0,0,0,0,0,0,0,0,0,0,0,0,0,0,0,0,0,0,0,0,0,0,0,0,0,0,0,0,0,0,0,0,0,0,0,0,0,0,0,0,0,0,0,0,0,0,0,0,0,0,0,0,0,-2.3787,-2.3788,0,-2.3889,-2.389,-2.3891,-2.3887,-2.3886,-2.3884,-2.3883,-2.3986,-2.399,-2.3994,0,0,0,0,0,0,0,0,0,0,0,0,0,-2.3587,-2.3591,-2.3787,-2.3788,-2.3789,-2.3889,-2.389,-2.3892,-2.3887,-2.3886,-2.3884,-2.3882,-2.3985,-2.399,-2.3995,0,0,0,0,0,0,0,0,0,0,0,0,0,-2.368,-2.3592,-2.3786,-2.3799,-2.3801,-2.3888,-2.389,-2.3892,-2.3888,-2.3885,-2.3883,-2.3881,-2.3983,-2.3989,-2.3995,-2.4076,0,0,-2.4014,-2.4017,0,0,0,0,0,0,0,0,-2.3675,-2.3687,-2.3796,-2.3798,-2.3801,-2.3873,-2.3858,-2.3954,-2.3888,-2.3855,-2.3883,-2.388,-2.395,-2.3959,-2.3983,-2.4081,-2.4085,-2.4015,-2.4018,-2.4021,-2.4023,0,0,0,0,0,0,0,-2.3668,-2.3683,-2.3827,-2.3797,-2.3801,-2.3799,-2.381,-2.3876,-2.3913,-2.3858,-2.3857,-2.387,-2.3951,-2.3977,-2.3985,-2.4087,-2.4014,-2.402,-2.4024,-2.4026,-2.4258,-2.426,0,0,0,0,0,0,-2.3659,-2.3677,-2.3824,-2.383,-2.3731,-2.3805,-2.3817,-2.3852,-2.3913,-2.392,-2.3871,-2.3869,-2.3967,-2.3978,-2.3989,-2.4088,-2.4021,-2.4027,-2.403,-2.4255,-2.4258,-2.4261,0,0,0,0,0,0,-2.3655,-2.3672,-2.382,-2.3754,-2.3772,-2.3811,-2.385,-2.3855,-2.3881,-2.3923,-2.393,-2.3891,-2.3966,-2.398,-2.4055,-2.4092,-2.4029,-2.4035,-2.4252,-2.4256,-2.4259,-2.4287,0,0,0,0,0,0,-2.3649,-2.3671,-2.3702,-2.3755,-2.3776,-2.3884,-2.3852,-2.3859,-2.3892,-2.389,-2.3943,-2.395,-2.3966,-2.4046,-2.4061,-2.4099,-2.404,-2.4249,-2.4254,-2.4258,-2.4283,-2.4291,-2.4298,0,0,0,0,0,-2.3642,-2.3705,-2.3704,-2.3721,-2.3816,-2.3886,-2.3899,-2.3916,-2.3895,-2.3926,-2.3954,-2.3948,-2.4085,-2.4053,-2.407,-2.4111,-2.4247,-2.4253,-2.4258,-2.428,-2.429,-2.4298,0,0,0,0,0,0,-2.3655,-2.3712,-2.3711,-2.3793,-2.3835,-2.3885,-2.3926,-2.3926,-2.3974,-2.397,-2.3989,-2.4001,-2.4076,-2.4101,-2.4064,-2.4193,-2.4163,-2.4172,-2.4174,-2.4184,-2.4191,-2.4184,-2.4045,0,0,0,0,0,-2.3668,-2.3721,-2.3767,-2.3835,-2.3856,-2.3888,-2.3919,-2.3929,-2.3973,-2.399,-2.4023,-2.4065,-2.4118,-2.4152,-2.4203,-2.4287,-2.4298,-2.4323,-2.433,-2.4336,-2.4344,-2.4391,-2.4403,-2.4279,-2.4279,-2.4279,0,0,-2.3694,-2.3732,-2.3764,-2.3839,-2.3872,-2.3927,-2.3903,-2.3961,-2.4001,-2.3999,-2.4072,-2.4097,-2.4146,-2.4225,-2.4262,-2.4248,-2.4381,-2.4344,-2.4348,-2.4353,-2.4398,-2.441,-2.442,-2.4283,-2.4282,-2.4282,0,0,-2.377,-2.3804,-2.3864,-2.3899,-2.395,-2.3971,-2.3985,-2.4036,-2.4053,-2.4126,-2.4126,-2.4174,-2.4264,-2.4299,-2.4329,-2.4419,-2.4416,-2.4435,-2.4475,-2.452,-2.453,-2.4538,-2.4571,-2.4582,-2.4442,-2.4442,-2.4442,0,-2.3796,-2.3878,-2.3895,-2.3954,-2.3987,-2.3989,-2.405,-2.4083,-2.4148,-2.4171,-2.4154,-2.4268,-2.4301,-2.4389,-2.4411,-2.4435,-2.4452,-2.4429,-2.4527,-2.4536,-2.4544,-2.4576,-2.4588,-2.4444,-2.4444,-2.4444,-2.4444,0,-2.3908,-2.3965,-2.4007,-2.4071,-2.4109,-2.4169,-2.4195,-2.4232,-2.4238,-2.426,-2.4335,-2.4375,-2.4434,-2.4456,-2.4462,-2.4545,-2.4535,-2.4523,-2.4494,-2.4558,-2.4588,-2.46,-2.4447,-2.4447,-2.4446,-2.4445,0,0,-2.3994,-2.4068,-2.4083,-2.4112,-2.4169,-2.4214,-2.4274,-2.4332,-2.4363,-2.4408,-2.4459,-2.4536,-2.4525,-2.4558,-2.4569,-2.4609,-2.4678,-2.4592,-2.4593,-2.4607,-2.4773,-2.4782,-2.4795,-2.4677,-2.4679,-2.4681,-2.4769,0,-2.4077,-2.4184,-2.4201,-2.4295,-2.4348,-2.435,-2.4403,-2.4443,-2.4466,-2.4514,-2.4538,-2.4593,-2.4574,-2.4594,-2.4634,-2.4661,-2.4712,-2.4655,-2.4724,-2.4726,-2.4712,-2.4811,-2.4821,-2.4902,-2.478,-2.4782,-2.4784,0,-2.4186,-2.4235,-2.4334,-2.4385,-2.4408,-2.4455,-2.451,-2.4556,-2.4602,-2.4616,-2.4654,-2.466,-2.4722,-2.469,-2.4777,-2.4738,-2.4767,-2.4785,-2.4788,-2.4796,-2.4759,-2.4821,-2.4928,-2.494,-2.4802,-2.4801,-2.4799,0,-2.424,-2.4331,-2.4402,-2.4427,-2.4488,-2.4521,-2.4547,-2.4591,-2.4626,-2.4674,-2.4696,-2.4751,-2.4781,-2.4823,-2.4844,-2.4818,-2.4929,-2.4898,-2.4942,-2.4942,-2.4965,-2.4964,-2.5079,-2.4984,-2.4984,-2.4983,-2.4983,0,-2.433,-2.4391,-2.4427,-2.4471,-2.4539,-2.4559,-2.4626,-2.4652,-2.4691,-2.474,-2.4745,-2.4791,-2.4815,-2.4865,-2.4881,-2.4951,-2.4964,-2.4977,-2.4981,-2.4977,-2.4975,-2.4996,-2.4991,-2.4987,-2.4986,-2.4985,-2.4985,0,-2.4402,-2.4429,-2.4507,-2.4558,-2.4573,-2.4621,-2.4664,-2.4707,-2.473,-2.4791,-2.4807,-2.4842,-2.4901,-2.4926,-2.4997,-2.5008,-2.5088,-2.5087,-2.5073,-2.5074,-2.5116,-2.5112,-2.525,-2.5269,-2.516,-2.5161,-2.5162,0,-2.4458,-2.4505,-2.4562,-2.4595,-2.4623,-2.4677,-2.4712,-2.4733,-2.477,-2.4826,-2.4862,-2.4921,-2.4969,-2.5062,-2.5094,-2.5149,-2.515,-2.5194,-2.5158,-2.5153,-2.5151,-2.5149,-2.5154,-2.5201,-2.5202,-2.5203,-2.5204,0,-2.4555,-2.4566,-2.4616,-2.4672,-2.4714,-2.4759,-2.4803,-2.483,-2.4858,-2.4898,-2.4959,-2.4996,-2.507,-2.5128,-2.5185,-2.5212,-2.5213,-2.5215,-2.5228,-2.5225,-2.5215,-2.5221,-2.5091,-2.5212,-2.5211,-2.521,-2.521,-2.521,-2.4621,-2.4663,-2.471,-2.4766,-2.4801,-2.4842,-2.4885,-2.4913,-2.4964,-2.5026,-2.5035,-2.51,-2.5145,-2.5222,-2.5252,-2.5302,-2.5291,-2.531,-2.5315,-2.532,-2.5323,-2.5206,-2.5313,-2.5313,-2.5312,-2.5312,-2.5312,0,-2.4718,-2.4748,-2.48,-2.4862,-2.4906,-2.4903,-2.4952,-2.4989,-2.5046,-2.5088,-2.5136,-2.5206,-2.5262,-2.5299,-2.5356,-2.539,-2.5391,-2.5404,-2.5402,-2.5408,-2.5329,-2.5312,-2.5402,-2.5402,-2.5402,-2.5402,-2.5402,-2.5402,-2.4774,-2.4845,-2.4862,-2.4951,-2.4981,-2.5044,-2.5072,-2.511,-2.5144,-2.5222,-2.5269,-2.5293,-2.5333,-2.5394,-2.5446,-2.5455,-2.5476,-2.5489,-2.5498,-2.5423,-2.5414,-2.5405,-2.5389,-2.5494,-2.5494,-2.5573,-2.5574,-2.5575]}]]